Time,TemperatureF,DewpointF,PressureIn,WindDirection,WindDirectionDegrees,WindSpeedMPH,WindSpeedGustMPH,Humidity,HourlyPrecipIn,Conditions,Clouds,dailyrainin,SoftwareType,DateUTC
2013-01-12 00:07:00,45.0,37.2,30.05,North,0,0.0,-999.0,74,0.00,,,0.00,open2300 v1.10,2013-01-12 08:07:00,
2013-01-12 00:21:00,44.8,37.0,30.05,North,0,0.0,-999.0,74,0.00,,,0.00,open2300 v1.10,2013-01-12 08:21:00,
2013-01-12 00:36:00,44.4,37.0,30.05,North,0,0.0,-999.0,75,0.00,,,0.00,open2300 v1.10,2013-01-12 08:36:00,
2013-01-12 00:51:00,44.4,37.0,30.05,North,0,0.0,-999.0,75,0.00,,,0.00,open2300 v1.10,2013-01-12 08:51:00,
2013-01-12 01:07:00,44.2,36.8,30.04,North,0,0.0,-999.0,75,0.00,,,0.00,open2300 v1.10,2013-01-12 09:07:00,
2013-01-12 01:21:00,43.9,36.5,30.06,North,0,0.0,-999.0,75,0.00,,,0.00,open2300 v1.10,2013-01-12 09:21:00,
2013-01-12 01:36:00,43.9,36.5,30.06,North,0,0.0,-999.0,75,0.00,,,0.00,open2300 v1.10,2013-01-12 09:36:00,
2013-01-12 01:51:00,43.7,35.9,30.06,North,0,0.0,-999.0,74,0.00,,,0.00,open2300 v1.10,2013-01-12 09:51:00,
2013-01-12 02:07:00,43.7,35.9,30.07,North,0,0.0,-999.0,74,0.00,,,0.00,open2300 v1.10,2013-01-12 10:07:00,
2013-01-12 02:21:00,43.7,35.9,30.07,North,0,0.0,-999.0,74,0.00,,,0.00,open2300 v1.10,2013-01-12 10:21:00,
2013-01-12 02:36:00,43.7,35.6,30.07,North,0,0.0,-999.0,73,0.00,,,0.00,open2300 v1.10,2013-01-12 10:36:00,
2013-01-12 02:51:00,43.5,35.1,30.07,North,0,0.0,-999.0,72,0.00,,,0.00,open2300 v1.10,2013-01-12 10:51:00,
2013-01-12 03:07:00,43.3,34.9,30.06,North,0,0.0,-999.0,72,0.00,,,0.00,open2300 v1.10,2013-01-12 11:07:00,
2013-01-12 03:21:00,43.2,34.8,30.06,North,0,0.0,-999.0,72,0.00,,,0.00,open2300 v1.10,2013-01-12 11:21:00,
2013-01-12 03:36:00,43.0,34.9,30.07,North,0,0.0,-999.0,73,0.00,,,0.00,open2300 v1.10,2013-01-12 11:36:00,
2013-01-12 03:51:00,43.0,34.9,30.07,North,0,0.0,-999.0,73,0.00,,,0.00,open2300 v1.10,2013-01-12 11:51:00,
2013-01-12 04:07:00,43.0,34.9,30.07,North,0,0.0,-999.0,73,0.00,,,0.00,open2300 v1.10,2013-01-12 12:07:00,
2013-01-12 04:21:00,43.2,35.1,30.07,North,0,0.0,-999.0,73,0.00,,,0.00,open2300 v1.10,2013-01-12 12:21:00,
2013-01-12 04:36:00,43.2,35.1,30.07,North,0,0.0,-999.0,73,0.00,,,0.00,open2300 v1.10,2013-01-12 12:36:00,
2013-01-12 04:51:00,43.2,34.5,30.07,North,0,0.0,-999.0,71,0.00,,,0.00,open2300 v1.10,2013-01-12 12:51:00,
2013-01-12 05:07:00,43.0,34.3,30.07,North,0,0.0,-999.0,71,0.00,,,0.00,open2300 v1.10,2013-01-12 13:07:00,
2013-01-12 05:21:00,43.0,34.0,30.07,North,0,0.0,-999.0,70,0.00,,,0.00,open2300 v1.10,2013-01-12 13:21:00,
2013-01-12 05:36:00,43.0,33.6,30.07,North,0,0.0,-999.0,69,0.00,,,0.00,open2300 v1.10,2013-01-12 13:36:00,
2013-01-12 05:51:00,43.0,33.6,30.08,North,0,0.0,-999.0,69,0.00,,,0.00,open2300 v1.10,2013-01-12 13:51:00,
2013-01-12 06:07:00,42.6,33.6,30.09,North,0,0.0,-999.0,70,0.00,,,0.00,open2300 v1.10,2013-01-12 14:07:00,
2013-01-12 06:21:00,42.6,33.9,30.09,North,0,0.0,-999.0,71,0.00,,,0.00,open2300 v1.10,2013-01-12 14:21:00,
2013-01-12 06:36:00,42.4,33.8,30.10,North,0,0.0,-999.0,71,0.00,,,0.00,open2300 v1.10,2013-01-12 14:36:00,
2013-01-12 06:51:00,42.4,33.8,30.11,North,0,0.0,-999.0,71,0.00,,,0.00,open2300 v1.10,2013-01-12 14:51:00,
2013-01-12 07:06:00,42.4,33.8,30.11,North,0,0.0,-999.0,71,0.00,,,0.00,open2300 v1.10,2013-01-12 15:06:00,
2013-01-12 07:21:00,42.4,33.8,30.11,North,0,0.0,-999.0,71,0.00,,,0.00,open2300 v1.10,2013-01-12 15:21:00,
2013-01-12 07:36:00,42.4,34.1,30.12,North,0,0.0,-999.0,72,0.00,,,0.00,open2300 v1.10,2013-01-12 15:36:00,
2013-01-12 07:51:00,42.6,34.3,30.12,North,0,0.0,-999.0,72,0.00,,,0.00,open2300 v1.10,2013-01-12 15:51:00,
2013-01-12 08:06:00,42.6,34.3,30.12,North,0,0.0,-999.0,72,0.00,,,0.00,open2300 v1.10,2013-01-12 16:06:00,
2013-01-12 08:21:00,43.0,34.6,30.12,North,0,0.0,-999.0,72,0.00,,,0.00,open2300 v1.10,2013-01-12 16:21:00,
2013-01-12 08:36:00,43.2,35.1,30.12,North,0,0.0,-999.0,73,0.00,,,0.00,open2300 v1.10,2013-01-12 16:36:00,
2013-01-12 08:51:00,43.3,35.3,30.12,North,0,0.0,-999.0,73,0.00,,,0.00,open2300 v1.10,2013-01-12 16:51:00,
2013-01-12 09:06:00,43.7,35.3,30.13,North,0,0.0,-999.0,72,0.00,,,0.00,open2300 v1.10,2013-01-12 17:06:00,
2013-01-12 09:21:00,43.9,35.4,30.13,North,0,0.0,-999.0,72,0.00,,,0.00,open2300 v1.10,2013-01-12 17:21:00,
2013-01-12 09:36:00,44.2,35.8,30.12,North,0,0.0,-999.0,72,0.00,,,0.00,open2300 v1.10,2013-01-12 17:36:00,
2013-01-12 09:51:00,44.6,36.1,30.13,North,0,0.0,-999.0,72,0.00,,,0.00,open2300 v1.10,2013-01-12 17:51:00,
2013-01-12 10:06:00,45.0,36.1,30.13,North,0,0.0,-999.0,71,0.00,,,0.00,open2300 v1.10,2013-01-12 18:06:00,
2013-01-12 10:21:00,45.1,36.0,30.13,North,0,0.0,-999.0,70,0.00,,,0.00,open2300 v1.10,2013-01-12 18:21:00,
2013-01-12 10:36:00,45.5,35.5,30.13,North,0,0.0,-999.0,68,0.00,,,0.00,open2300 v1.10,2013-01-12 18:36:00,
2013-01-12 10:51:00,46.0,36.1,30.12,North,0,0.0,-999.0,68,0.00,,,0.00,open2300 v1.10,2013-01-12 18:51:00,
2013-01-12 11:06:00,46.2,36.2,30.12,North,0,0.0,-999.0,68,0.00,,,0.00,open2300 v1.10,2013-01-12 19:06:00,
2013-01-12 11:21:00,46.6,36.2,30.11,North,0,0.0,-999.0,67,0.00,,,0.00,open2300 v1.10,2013-01-12 19:21:00,
2013-01-12 11:36:00,46.9,36.1,30.10,North,0,0.0,-999.0,66,0.00,,,0.00,open2300 v1.10,2013-01-12 19:36:00,
2013-01-12 11:51:00,47.1,35.9,30.09,North,0,0.0,-999.0,65,0.00,,,0.00,open2300 v1.10,2013-01-12 19:51:00,
2013-01-12 12:06:00,47.1,35.1,30.08,North,0,0.0,-999.0,63,0.00,,,0.00,open2300 v1.10,2013-01-12 20:06:00,
2013-01-12 12:21:00,47.3,35.3,30.08,North,0,0.0,-999.0,63,0.00,,,0.00,open2300 v1.10,2013-01-12 20:21:00,
2013-01-12 12:36:00,47.5,35.5,30.07,North,0,0.0,-999.0,63,0.00,,,0.00,open2300 v1.10,2013-01-12 20:36:00,
2013-01-12 12:51:00,48.0,35.6,30.06,North,0,0.0,-999.0,62,0.00,,,0.00,open2300 v1.10,2013-01-12 20:51:00,
2013-01-12 13:06:00,48.0,34.9,30.05,North,0,0.0,-999.0,60,0.00,,,0.00,open2300 v1.10,2013-01-12 21:06:00,
2013-01-12 13:21:00,48.4,35.2,30.05,North,0,0.0,-999.0,60,0.00,,,0.00,open2300 v1.10,2013-01-12 21:21:00,
2013-01-12 13:36:00,48.6,34.9,30.05,North,0,0.0,-999.0,59,0.00,,,0.00,open2300 v1.10,2013-01-12 21:36:00,
2013-01-12 13:51:00,48.7,35.1,30.05,North,0,0.0,-999.0,59,0.00,,,0.00,open2300 v1.10,2013-01-12 21:51:00,
2013-01-12 14:06:00,48.7,34.1,30.04,North,0,0.0,-999.0,57,0.00,,,0.00,open2300 v1.10,2013-01-12 22:06:00,
2013-01-12 14:21:00,49.1,34.5,30.04,North,0,0.0,-999.0,57,0.00,,,0.00,open2300 v1.10,2013-01-12 22:21:00,
2013-01-12 14:36:00,49.1,34.5,30.04,North,0,0.0,-999.0,57,0.00,,,0.00,open2300 v1.10,2013-01-12 22:36:00,
2013-01-12 14:51:00,49.1,34.0,30.04,North,0,0.0,-999.0,56,0.00,,,0.00,open2300 v1.10,2013-01-12 22:51:00,
2013-01-12 15:06:00,49.1,34.0,30.04,North,0,0.0,-999.0,56,0.00,,,0.00,open2300 v1.10,2013-01-12 23:06:00,
2013-01-12 15:21:00,49.3,34.2,30.03,North,0,0.0,-999.0,56,0.00,,,0.00,open2300 v1.10,2013-01-12 23:21:00,
2013-01-12 15:36:00,49.1,34.0,30.03,North,0,0.0,-999.0,56,0.00,,,0.00,open2300 v1.10,2013-01-12 23:36:00,
2013-01-12 15:51:00,49.1,34.0,30.02,North,0,0.0,-999.0,56,0.00,,,0.00,open2300 v1.10,2013-01-12 23:51:00,
2013-01-12 16:06:00,49.3,33.8,30.02,North,0,0.0,-999.0,55,0.00,,,0.00,open2300 v1.10,2013-01-13 00:06:00,
2013-01-12 16:21:00,49.6,34.1,30.02,North,0,0.0,-999.0,55,0.00,,,0.00,open2300 v1.10,2013-01-13 00:21:00,
2013-01-12 16:36:00,49.8,33.8,30.02,North,0,0.0,-999.0,54,0.00,,,0.00,open2300 v1.10,2013-01-13 00:36:00,
2013-01-12 16:51:00,49.8,33.8,30.02,North,0,0.0,-999.0,54,0.00,,,0.00,open2300 v1.10,2013-01-13 00:51:00,
2013-01-12 17:06:00,49.6,33.2,30.02,North,0,0.0,-999.0,53,0.00,,,0.00,open2300 v1.10,2013-01-13 01:06:00,
2013-01-12 17:21:00,49.1,32.7,30.02,North,0,0.0,-999.0,53,0.00,,,0.00,open2300 v1.10,2013-01-13 01:21:00,
2013-01-12 17:36:00,48.7,32.3,30.03,North,0,0.0,-999.0,53,0.00,,,0.00,open2300 v1.10,2013-01-13 01:36:00,
2013-01-12 17:51:00,48.4,32.4,30.03,North,0,0.0,-999.0,54,0.00,,,0.00,open2300 v1.10,2013-01-13 01:51:00,
2013-01-12 18:06:00,48.0,32.1,30.03,North,0,0.0,-999.0,54,0.00,,,0.00,open2300 v1.10,2013-01-13 02:06:00,
2013-01-12 18:21:00,48.0,32.5,30.03,North,0,0.0,-999.0,55,0.00,,,0.00,open2300 v1.10,2013-01-13 02:21:00,
2013-01-12 18:36:00,48.2,32.7,30.03,North,0,0.0,-999.0,55,0.00,,,0.00,open2300 v1.10,2013-01-13 02:36:00,
2013-01-12 18:51:00,48.2,32.7,30.03,North,0,0.0,-999.0,55,0.00,,,0.00,open2300 v1.10,2013-01-13 02:51:00,
2013-01-12 19:06:00,48.2,32.7,30.02,North,0,0.0,-999.0,55,0.00,,,0.00,open2300 v1.10,2013-01-13 03:06:00,
2013-01-12 19:21:00,48.2,32.7,30.03,North,0,0.0,-999.0,55,0.00,,,0.00,open2300 v1.10,2013-01-13 03:21:00,
2013-01-12 19:36:00,48.2,32.7,30.03,North,0,0.0,-999.0,55,0.00,,,0.00,open2300 v1.10,2013-01-13 03:36:00,
2013-01-12 19:51:00,48.0,32.5,30.03,North,0,0.0,-999.0,55,0.00,,,0.00,open2300 v1.10,2013-01-13 03:51:00,
2013-01-12 20:06:00,48.0,32.5,30.03,North,0,0.0,-999.0,55,0.00,,,0.00,open2300 v1.10,2013-01-13 04:06:00,
2013-01-12 20:21:00,48.0,32.5,30.03,North,0,0.0,-999.0,55,0.00,,,0.00,open2300 v1.10,2013-01-13 04:21:00,
2013-01-12 20:36:00,47.8,32.8,30.03,North,0,0.0,-999.0,56,0.00,,,0.00,open2300 v1.10,2013-01-13 04:36:00,
2013-01-12 20:51:00,47.3,32.3,30.02,North,0,0.0,-999.0,56,0.00,,,0.00,open2300 v1.10,2013-01-13 04:51:00,
2013-01-12 21:06:00,47.1,32.1,30.02,North,0,0.0,-999.0,56,0.00,,,0.00,open2300 v1.10,2013-01-13 05:06:00,
2013-01-12 21:21:00,46.9,32.0,30.03,North,0,0.0,-999.0,56,0.00,,,0.00,open2300 v1.10,2013-01-13 05:21:00,
2013-01-12 21:36:00,46.8,31.8,30.03,North,0,0.0,-999.0,56,0.00,,,0.00,open2300 v1.10,2013-01-13 05:36:00,
2013-01-12 21:51:00,46.6,32.1,30.03,North,0,0.0,-999.0,57,0.00,,,0.00,open2300 v1.10,2013-01-13 05:51:00,
2013-01-12 22:06:00,46.4,31.9,30.03,North,0,0.0,-999.0,57,0.00,,,0.00,open2300 v1.10,2013-01-13 06:06:00,
2013-01-12 22:21:00,46.2,31.8,30.04,North,0,0.0,-999.0,57,0.00,,,0.00,open2300 v1.10,2013-01-13 06:21:00,
2013-01-12 22:36:00,46.0,31.6,30.04,North,0,0.0,-999.0,57,0.00,,,0.00,open2300 v1.10,2013-01-13 06:36:00,
2013-01-12 22:51:00,46.0,31.6,30.05,North,0,0.0,-999.0,57,0.00,,,0.00,open2300 v1.10,2013-01-13 06:51:00,
2013-01-12 23:06:00,45.7,31.3,30.05,North,0,0.0,-999.0,57,0.00,,,0.00,open2300 v1.10,2013-01-13 07:06:00,
2013-01-12 23:21:00,45.5,31.1,30.06,North,0,0.0,-999.0,57,0.00,,,0.00,open2300 v1.10,2013-01-13 07:21:00,
2013-01-12 23:36:00,45.0,30.6,30.06,North,0,0.0,-999.0,57,0.00,,,0.00,open2300 v1.10,2013-01-13 07:36:00,
2013-01-12 23:51:00,45.0,30.6,30.07,North,0,0.0,-999.0,57,0.00,,,0.00,open2300 v1.10,2013-01-13 07:51:00,